Theta_e
335 333 333 335 335 337 337 336 336 333 333 333 333 330 327 324 318 315 314 317 318 322 324 322 325 330 332 331 333 333 332 329 329 330 328 327 329 328 325 327 331 335 338 338 337 337 337 338 337 337 337 336 336 336 337 337 337 338 338 337 336 334 331 332 334 334 332 332 334 335 336 334 333 333
333 332 331 331 330 331 331 331 332 332 332 331 330 329 330 327 321 319 315 315 321 321 324 324 323 327 329 330 332 333 329 327 329 328 328 328 329 321 323 323 325 328 329 331 335 337 337 337 337 337 337 337 336 336 335 335 336 337 337 334 330 327 329 333 335 334 334 333 333 334 335 334 333 333
331 329 328 329 329 330 329 329 329 330 330 329 328 329 329 328 326 322 320 314 322 324 321 324 325 325 327 327 327 330 331 330 328 329 329 328 326 324 328 324 323 322 322 322 323 324 331 335 334 334 335 336 336 335 335 334 335 335 332 328 326 325 327 332 334 334 333 333 334 334 335 333 332 333
327 326 325 325 325 326 326 324 322 323 328 330 328 327 327 326 326 324 320 317 316 323 323 323 323 323 324 325 326 327 331 336 328 329 329 330 325 331 329 325 321 320 318 317 316 315 318 322 327 331 334 335 335 333 333 334 333 330 328 327 325 323 326 332 334 333 333 333 334 334 334 333 333 332
324 321 319 319 319 318 317 317 316 317 318 321 321 319 320 321 321 320 318 315 315 320 324 323 321 322 321 319 324 323 325 326 328 328 330 331 329 329 330 330 323 317 317 316 314 313 313 314 315 315 318 324 325 324 326 325 323 326 327 326 324 322 320 324 331 333 334 334 334 334 333 333 333 333
323 319 316 315 317 317 316 316 314 316 317 317 316 315 315 316 315 317 314 313 313 311 316 317 318 318 319 315 321 320 324 324 325 322 323 329 328 328 329 328 330 316 318 317 317 315 314 312 311 310 315 318 315 313 314 315 316 318 321 319 319 319 317 318 324 330 333 334 335 333 332 333 332 330
318 317 315 314 316 318 315 315 315 316 316 317 315 314 315 316 315 316 316 314 311 310 311 314 313 315 317 318 315 316 322 324 322 318 319 320 325 327 328 327 329 317 317 319 317 315 314 312 312 311 312 314 313 312 312 312 311 311 311 312 314 315 315 315 319 325 329 331 333 334 333 330 329 329
316 315 314 314 315 315 313 313 314 315 316 316 315 314 315 315 315 316 317 317 313 312 310 313 312 316 314 318 315 317 317 316 316 316 318 317 318 320 325 324 325 324 320 319 317 316 315 313 312 311 311 310 310 310 310 310 310 310 310 310 310 311 312 313 313 315 319 321 324 328 324 322 325 327
315 314 312 313 313 312 311 311 311 313 314 314 313 314 314 314 315 317 317 316 315 313 312 313 314 316 315 315 316 315 315 315 315 316 314 315 316 317 319 321 321 317 318 317 316 316 316 315 315 313 311 310 309 309 309 309 309 309 309 308 308 309 309 310 310 311 311 311 312 313 313 314 317 322
315 313 311 311 311 311 310 309 310 311 312 313 312 312 312 312 314 314 314 314 314 313 311 311 311 313 312 312 314 314 315 314 313 312 312 313 314 314 315 317 319 320 320 322 325 321 318 317 315 313 311 310 310 310 309 309 309 309 308 307 307 307 308 308 308 308 309 309 310 310 309 310 312 315
315 313 312 312 311 310 310 310 309 310 310 312 311 312 312 312 311 310 310 311 311 310 310 310 311 310 312 313 311 314 315 314 312 309 308 309 311 312 313 313 316 317 319 319 318 319 320 319 319 317 315 313 312 312 311 311 310 310 308 306 306 306 306 307 307 307 307 308 308 308 307 307 307 309
314 314 314 314 312 311 312 312 312 312 310 310 310 311 312 312 310 308 308 308 307 308 307 308 309 310 310 311 312 314 313 310 310 311 309 307 308 309 311 312 311 315 318 316 317 317 318 319 320 318 316 316 316 315 313 313 312 312 310 308 307 306 305 306 306 306 307 307 308 308 307 306 305 306
313 312 311 311 313 316 315 316 315 315 316 314 311 312 313 313 310 308 306 305 305 304 305 306 309 308 308 309 309 309 309 308 308 310 310 308 308 309 309 310 312 314 314 313 313 314 317 317 318 321 321 322 321 321 318 318 317 314 311 308 307 306 306 305 305 305 305 306 306 307 307 306 306 305
314 312 311 312 312 311 311 311 313 311 312 315 314 315 313 313 311 308 305 304 304 304 303 304 305 305 306 306 306 307 308 309 309 308 308 305 305 306 305 306 309 313 313 310 310 312 317 316 316 317 319 322 321 321 321 320 320 317 310 307 307 306 306 305 305 304 304 304 304 305 306 306 305 305
315 314 312 310 309 310 309 307 310 309 310 310 309 312 314 315 313 309 306 305 304 305 304 304 304 303 304 305 306 305 305 307 306 306 306 305 304 302 300 299 304 311 310 309 308 309 314 316 313 314 315 319 321 320 319 315 314 313 311 309 307 306 306 305 305 305 304 303 303 303 303 304 304 304
315 314 313 311 310 308 306 305 305 308 309 308 308 306 307 307 303 300 308 306 304 304 304 303 303 303 303 304 305 304 304 304 305 305 304 303 301 300 299 300 301 307 310 308 306 307 311 312 312 310 313 316 319 320 317 313 311 310 309 308 307 306 305 305 304 304 304 303 303 302 302 302 303 303
313 314 313 310 309 305 308 306 304 304 304 309 310 309 311 312 305 298 294 296 311 308 306 303 302 303 305 304 305 306 305 306 304 304 302 302 301 301 301 302 303 305 308 306 306 304 307 309 308 308 311 313 314 317 315 313 310 310 309 308 306 305 305 304 304 304 303 303 302 302 301 301 301 302
315 314 312 309 308 306 305 303 303 303 302 305 309 308 311 310 316 310 297 300 304 309 308 305 303 305 307 306 306 308 306 306 305 303 301 302 302 302 302 304 303 305 308 305 303 301 303 308 308 306 307 310 309 311 310 309 310 309 307 306 306 306 305 304 304 303 303 303 302 302 301 300 300 300
313 312 312 310 308 306 304 304 303 301 301 305 308 306 305 305 306 309 307 306 304 306 308 307 306 306 307 308 308 308 308 308 307 306 304 304 305 304 304 303 304 304 306 305 304 299 303 306 304 304 304 305 305 308 307 308 308 307 308 307 306 306 305 304 304 303 303 302 302 301 301 300 299 299
310 309 310 310 308 306 304 302 296 299 304 305 305 306 305 304 304 306 313 300 301 306 306 308 308 307 309 307 307 308 308 308 309 309 307 305 303 300 299 298 301 301 303 306 302 299 300 303 300 300 302 302 302 305 307 309 310 310 308 306 306 306 305 304 303 303 302 302 302 301 301 300 299 299
310 309 307 308 307 307 304 300 293 294 305 303 302 304 304 304 302 303 304 302 299 298 297 295 296 296 296 296 296 295 295 300 305 307 303 300 300 298 296 297 298 298 300 304 302 299 298 300 299 299 300 302 302 304 307 309 309 309 308 306 306 305 304 304 303 303 302 302 301 301 301 300 299 300
309 309 309 308 306 306 304 294 293 293 303 301 301 303 303 300 298 299 301 302 303 302 301 301 298 296 296 296 296 297 297 297 300 305 299 300 299 297 297 295 296 298 299 301 303 298 297 299 299 298 300 302 303 304 306 307 307 307 307 307 305 304 304 303 303 302 302 302 301 301 300 300 299 301
309 308 310 309 307 305 304 292 294 293 302 301 301 303 302 298 298 299 300 300 301 304 305 306 306 305 307 310 307 310 305 301 307 307 302 300 298 296 297 297 296 295 296 300 303 297 297 297 299 299 298 297 301 303 304 305 306 306 307 308 315 307 306 307 305 302 301 301 301 300 300 299 299 303
307 304 304 305 295 295 293 294 293 294 293 300 302 303 301 299 298 300 299 302 303 304 305 304 303 303 304 304 305 306 307 311 307 302 301 300 300 298 297 297 296 294 295 298 301 297 297 298 297 300 299 296 295 300 302 302 303 304 305 307 311 312 309 307 306 305 302 300 300 300 299 299 299 304
308 306 305 303 299 294 294 294 293 294 293 295 302 303 303 302 303 298 299 302 305 303 304 304 302 301 301 300 300 301 301 302 302 302 301 301 300 299 298 296 295 294 296 299 299 298 296 297 297 299 298 298 297 297 298 299 301 302 304 304 303 308 315 314 312 313 307 301 299 299 298 299 298 302
308 308 307 305 302 294 295 294 294 293 293 293 301 303 298 296 294 300 302 301 301 302 302 299 299 300 299 298 299 299 300 300 302 300 300 300 300 301 301 299 296 295 295 299 298 298 296 296 297 298 297 295 295 296 295 296 299 301 302 303 303 305 310 314 313 312 313 310 303 300 300 298 298 299
307 309 307 305 303 292 295 294 293 293 293 297 300 296 295 295 294 298 301 301 301 301 300 301 300 299 299 298 297 298 297 299 299 299 299 300 301 301 301 301 299 298 298 299 300 299 297 296 298 297 297 295 293 294 294 294 296 300 300 301 302 302 303 306 312 313 312 311 310 304 299 298 298 298
305 305 306 306 296 293 294 293 293 293 294 297 295 294 294 294 296 300 301 301 302 300 298 297 298 298 298 297 296 297 298 298 298 299 300 301 301 300 300 299 300 299 299 298 298 298 298 296 296 297 297 295 293 292 292 295 296 296 297 300 301 301 302 303 307 310 311 313 312 306 302 302 301 300
309 301 296 295 293 293 293 293 293 293 295 293 293 293 293 300 301 301 301 302 301 298 297 296 297 296 297 297 297 298 298 300 300 300 301 299 298 299 299 298 298 298 300 300 298 298 297 296 295 296 296 296 294 294 294 293 294 295 297 296 296 299 301 302 308 308 309 309 309 309 306 306 304 302
294 295 294 294 293 294 294 298 300 301 302 298 296 295 297 299 300 301 302 301 298 297 296 297 296 295 296 296 297 298 299 297 296 297 296 295 295 295 295 294 295 296 297 298 297 297 296 295 295 295 295 295 296 294 294 293 293 295 296 296 297 300 300 304 305 308 308 307 308 307 309 309 309 305
305 304 300 300 297 297 297 297 299 299 301 302 302 303 304 303 301 303 302 299 299 298 297 296 296 296 296 297 297 297 296 295 296 296 295 293 293 294 293 292 292 293 294 295 296 296 296 295 296 295 294 295 295 294 294 295 293 294 295 297 299 297 299 301 304 306 307 308 308 308 307 307 309 307
304 304 301 300 302 303 303 303 304 304 306 306 302 301 300 301 301 303 306 303 298 298 297 296 296 296 296 295 295 295 294 294 294 295 294 294 293 293 292 291 290 291 292 293 294 296 298 296 295 296 295 295 293 294 294 294 294 295 295 298 298 298 299 299 301 301 303 304 305 307 307 307 308 309
304 303 304 304 304 304 302 301 300 299 300 300 301 303 302 300 299 298 296 296 296 295 295 295 295 295 294 294 294 294 293 294 294 294 293 293 292 292 292 291 291 290 290 290 292 293 294 294 297 296 295 295 295 295 294 292 294 295 295 295 295 295 296 298 298 298 298 298 298 300 303 307 309 309
302 302 301 301 301 301 300 299 298 299 299 299 298 298 296 297 297 297 296 295 294 295 295 294 294 293 293 292 293 293 293 293 293 293 292 292 292 291 290 290 290 291 291 290 291 291 293 293 293 294 294 295 297 296 295 294 295 295 295 295 295 294 295 295 296 296 297 297 297 297 299 303 306 308
300 301 300 300 301 299 300 299 300 299 298 296 297 297 298 298 297 296 295 294 294 294 293 293 293 293 293 292 292 292 292 292 292 292 292 292 292 291 290 290 290 290 290 290 290 291 292 292 292 291 291 292 292 293 296 298 296 295 294 294 293 293 293 294 294 295 296 297 298 297 299 301 303 305
300 300 299 300 299 299 299 299 298 299 298 297 296 296 296 296 297 295 295 295 295 294 292 291 291 292 291 291 291 291 291 290 291 291 290 290 290 290 290 290 290 290 290 290 290 291 291 291 290 289 288 288 288 288 289 295 295 294 292 291 292 292 292 293 294 294 295 296 297 297 296 297 299 303
299 300 301 300 300 300 299 298 299 299 299 298 297 296 295 295 296 296 297 297 294 293 292 292 291 291 291 291 290 289 290 290 290 290 290 290 290 290 289 289 289 289 289 289 290 290 290 289 290 289 288 287 286 286 288 292 294 295 293 291 291 292 292 292 292 292 294 296 296 296 295 295 296 299
300 301 302 299 300 300 300 299 299 298 298 297 297 295 295 295 295 296 295 295 292 292 292 291 291 291 291 291 290 290 290 290 290 290 289 289 289 288 288 288 288 288 288 289 289 289 289 289 289 289 288 287 285 285 285 288 289 291 295 293 291 291 293 292 292 293 293 294 293 294 295 294 295 297
299 300 300 299 299 300 299 299 298 298 298 297 296 295 294 294 294 294 293 293 292 291 291 291 290 290 291 291 290 290 290 289 289 289 288 288 288 288 288 287 287 288 287 286 287 287 288 287 288 288 288 287 285 285 287 286 286 289 293 295 293 292 293 294 293 292 292 291 292 294 294 296 297 296
299 300 300 299 300 300 299 299 298 297 297 297 296 296 294 293 293 293 292 290 291 292 291 290 290 291 291 291 290 290 289 289 288 288 288 288 288 287 287 287 287 286 286 285 285 286 286 286 287 287 287 287 288 290 290 289 288 290 292 294 296 294 293 294 292 291 290 291 292 291 291 292 291 294
300 300 300 300 300 300 299 298 298 297 297 297 296 295 294 293 292 292 292 291 290 290 290 290 290 290 290 290 289 289 288 288 288 288 288 287 286 285 286 285 285 286 285 285 285 286 286 287 288 287 288 289 290 291 288 285 285 286 286 289 294 295 295 294 292 290 289 290 290 289 288 288 289 291
299 300 300 300 300 300 299 298 298 297 296 295 294 294 293 293 293 293 292 292 291 290 290 289 289 289 288 289 289 288 288 287 286 286 285 285 284 284 285 285 284 285 285 284 284 285 287 289 289 289 289 289 288 286 284 284 284 285 286 287 288 293 294 293 293 293 292 290 289 287 287 287 288 288
301 300 299 300 300 299 298 297 298 295 295 295 294 293 293 293 292 291 291 290 289 289 289 289 289 288 288 288 289 288 287 286 285 284 284 284 284 284 284 284 285 285 285 285 286 286 287 287 288 287 287 287 286 285 283 284 284 284 285 285 286 287 289 292 293 293 293 293 293 292 291 290 287 285
300 301 301 300 299 298 298 297 295 295 294 294 294 294 293 291 291 291 290 289 289 288 288 288 288 288 288 288 287 285 285 284 284 284 284 284 284 284 284 285 285 285 285 285 284 285 286 286 287 287 285 284 285 283 283 283 283 284 285 285 286 286 286 287 289 292 293 293 293 293 294 294 294 294
300 300 300 298 298 298 297 295 295 293 294 294 294 293 292 291 289 289 289 289 288 288 288 288 288 287 285 284 284 283 283 286 285 284 284 284 284 284 284 284 284 284 284 284 283 284 285 285 286 286 285 285 285 284 284 284 284 284 285 285 285 285 286 287 286 286 287 288 291 292 293 293 293 293
Wind_Speed
3 4 4 3 2 1 1 1 3 3 3 2 1 2 1 3 2 3 4 3 4 5 6 5 4 4 3 3 4 3 1 3 3 1 3 4 4 7 10 11 12 13 12 13 14 14 13 14 14 14 12 11 10 11 11 12 12 13 13 12 11 13 14 14 19 23 23 25 26 25 24 23 22 21
4 6 6 6 6 5 6 5 4 3 4 3 4 4 2 2 2 2 4 4 2 4 4 4 4 5 5 4 3 3 3 8 7 5 5 5 3 7 7 8 7 9 11 12 12 14 15 15 15 15 14 14 13 13 13 12 13 13 13 11 10 10 11 15 16 20 23 23 26 26 25 21 19 21
6 6 6 5 5 5 5 6 5 3 4 4 4 3 4 4 4 3 2 3 2 3 3 3 4 3 3 3 3 3 3 3 4 3 3 4 9 10 5 6 7 9 11 10 12 13 13 14 15 15 16 15 14 14 14 13 13 12 11 10 9 10 11 14 15 14 17 21 27 29 26 23 23 24
7 7 7 7 7 7 6 6 7 6 4 3 4 4 3 3 3 2 3 2 4 3 4 4 4 5 3 3 3 2 1 1 2 3 4 3 7 5 4 3 5 7 7 9 10 10 10 11 13 13 13 14 14 12 12 12 11 10 10 9 8 8 9 14 15 17 19 20 20 21 22 23 24 27
8 8 9 9 9 8 7 6 6 7 7 6 6 6 6 5 4 4 3 3 3 3 3 4 4 5 4 4 2 2 1 3 2 3 3 3 3 3 4 4 5 1 2 3 4 5 6 6 6 7 9 13 14 13 12 12 12 11 10 11 10 8 8 9 14 16 17 18 19 21 20 22 24 26
7 7 8 8 7 7 7 7 7 7 6 6 6 5 6 5 6 5 4 3 3 4 4 5 6 5 5 5 4 5 2 2 2 3 3 2 1 2 4 5 3 5 5 5 5 6 6 6 7 7 8 9 10 10 11 13 13 11 11 11 11 10 9 9 10 13 15 17 19 19 20 21 19 21
7 7 7 8 7 6 7 7 6 7 6 5 7 7 6 5 5 5 4 3 3 4 4 3 4 3 4 3 4 6 4 3 4 4 4 4 4 3 2 3 3 1 4 6 7 7 8 8 8 8 9 10 10 11 11 11 11 12 13 13 12 11 11 11 11 12 15 15 16 17 16 14 15 16
7 8 7 8 8 7 8 8 7 7 7 7 7 7 6 6 7 6 6 4 3 3 5 3 3 3 4 2 4 7 8 9 9 8 8 9 9 7 5 4 4 3 6 6 6 8 7 8 9 10 10 10 10 11 11 11 11 12 12 12 13 13 13 12 12 11 11 12 13 14 14 13 12 13
8 8 8 8 8 8 8 8 8 8 8 8 8 8 7 7 7 7 6 7 6 6 6 5 4 4 4 5 5 6 7 7 6 7 9 8 7 7 7 6 7 11 9 8 8 8 8 9 10 10 10 9 10 11 11 12 12 12 12 12 12 12 12 13 13 13 12 12 12 12 13 13 14 14
7 8 8 8 8 7 7 7 7 7 7 7 7 7 7 8 8 8 8 8 7 7 7 7 6 6 7 6 6 8 9 8 7 8 8 7 6 8 7 6 5 4 5 4 3 4 5 8 9 9 9 10 11 11 12 12 11 12 11 11 12 12 12 13 13 14 14 13 12 13 13 13 13 14
7 7 7 6 6 7 6 6 6 6 6 6 6 7 6 6 7 7 8 8 9 8 8 7 6 7 6 6 8 8 9 7 6 8 8 9 8 6 6 8 6 7 5 5 9 9 9 11 10 12 12 11 11 12 12 11 10 10 11 12 12 11 11 13 14 14 14 14 13 13 13 13 13 14
7 6 6 5 5 6 5 5 4 5 5 5 5 6 6 6 6 6 7 7 8 8 8 7 7 7 7 7 7 6 7 8 9 8 7 7 8 8 8 6 8 7 6 7 7 8 9 8 9 9 9 9 10 11 11 11 10 11 11 11 11 11 12 12 13 14 15 14 14 14 14 13 13 14
6 6 6 5 5 6 9 10 7 6 5 4 5 5 5 6 5 6 5 6 6 7 7 7 7 6 6 6 8 7 8 8 7 7 7 7 7 7 7 8 7 7 6 7 8 7 7 7 8 6 6 5 6 6 7 8 10 11 11 11 12 12 12 12 13 13 14 15 15 15 14 15 14 14
8 6 6 8 15 15 14 14 12 9 7 6 3 3 3 4 4 4 5 5 5 6 6 6 6 6 6 6 7 6 6 6 6 7 7 7 7 7 7 7 5 6 7 9 8 7 4 6 7 6 6 5 4 5 1 3 9 8 9 11 12 11 12 13 12 13 13 14 15 16 15 15 15 15
4 5 7 7 10 11 11 11 14 14 13 10 2 2 3 4 2 3 4 3 4 5 5 5 5 5 5 6 5 6 7 6 7 7 7 7 7 8 9 9 8 4 9 9 9 7 4 5 7 6 6 6 4 2 2 6 8 9 10 10 10 10 10 11 12 11 12 13 14 15 15 15 14 14
4 6 5 5 5 6 9 8 8 10 14 16 7 6 3 1 3 2 2 3 4 4 5 5 5 5 4 5 4 6 6 8 8 8 8 8 8 8 8 8 8 7 9 10 10 8 3 4 5 6 6 6 4 5 7 9 9 11 11 11 10 9 8 9 10 11 12 13 13 14 14 14 14 14
5 4 5 6 6 7 13 10 8 7 9 12 10 7 4 4 4 4 6 7 1 3 3 4 6 5 5 5 5 5 6 5 6 7 8 8 8 8 9 8 8 10 10 9 6 6 6 4 6 7 6 6 6 7 8 10 11 12 13 9 9 10 10 10 10 11 11 12 12 13 13 14 14 13
3 4 4 5 5 5 6 6 8 7 8 8 5 4 2 3 5 6 4 5 7 6 4 3 4 4 4 5 3 4 4 4 5 6 8 8 9 9 9 10 10 9 7 7 8 8 7 7 6 7 6 8 8 7 10 15 14 13 7 8 12 12 10 10 10 11 11 11 12 12 13 13 13 13
6 5 5 5 5 4 5 5 6 8 9 8 5 4 5 6 6 1 1 5 4 5 5 4 4 5 5 4 4 4 3 3 3 3 6 8 7 8 9 8 6 8 8 10 8 6 7 6 8 8 9 9 10 8 10 17 14 7 6 9 11 12 11 10 10 10 11 11 11 12 12 12 12 12
4 4 4 4 5 4 3 6 10 10 8 7 6 4 4 5 4 4 3 11 11 8 7 5 5 6 7 8 7 7 4 4 4 5 6 4 6 8 7 8 7 8 9 6 7 6 8 7 9 10 9 9 9 9 7 11 2 4 7 10 11 12 12 10 9 10 10 10 11 11 12 12 12 11
4 4 4 3 4 3 3 5 9 10 10 5 6 6 5 4 5 5 6 10 10 12 12 10 13 14 15 13 10 10 8 7 4 4 5 6 7 8 9 8 7 8 9 4 8 8 8 8 10 10 9 9 10 8 7 7 8 12 12 11 11 11 11 11 11 10 10 11 11 12 12 11 10 10
4 4 10 7 4 3 2 4 6 8 7 5 5 6 6 5 6 5 6 6 7 10 11 13 14 14 14 12 8 10 9 9 3 1 4 5 6 7 7 9 7 7 7 5 10 9 8 9 8 9 9 9 6 7 7 8 10 14 12 13 12 11 10 10 10 9 10 10 10 10 11 10 8 7
5 5 6 9 6 4 3 3 3 5 5 4 4 5 4 5 6 5 7 7 8 8 8 7 8 9 9 4 4 6 10 9 4 1 4 5 6 7 8 9 9 9 7 6 11 10 10 11 9 9 9 9 8 5 6 8 7 9 10 11 7 9 9 9 7 8 8 9 10 10 10 9 8 5
5 5 4 4 6 7 5 3 1 3 3 3 4 5 3 3 6 5 7 8 7 8 8 4 5 8 8 8 5 4 2 1 3 5 5 5 6 7 7 7 7 8 8 7 9 10 9 9 10 8 7 9 9 9 9 9 10 9 10 9 7 8 7 7 6 8 8 8 9 9 9 9 10 6
7 6 4 3 3 5 5 2 1 2 4 3 3 5 4 4 6 6 5 9 13 9 10 4 4 4 6 6 6 6 5 5 5 6 4 4 6 7 7 6 6 7 8 6 8 7 8 9 11 9 7 6 6 8 9 10 9 8 7 10 11 11 6 6 5 5 6 7 8 9 9 10 13 10
6 6 5 3 5 6 4 4 3 4 5 7 4 6 9 11 12 8 6 7 7 7 7 4 4 4 4 4 5 4 4 5 6 6 5 6 5 6 5 7 8 8 9 9 12 8 9 9 10 11 7 5 7 7 9 9 8 8 9 9 9 10 10 8 7 6 5 4 3 5 7 10 11 14
6 5 5 4 6 5 3 5 7 7 8 5 6 11 13 12 13 8 6 7 8 8 6 3 3 3 3 3 4 4 4 4 4 5 6 5 5 3 4 5 6 7 8 9 10 10 9 9 10 12 10 4 6 7 7 8 9 10 9 8 9 10 10 11 8 6 5 4 4 5 6 6 9 12
4 4 3 2 5 6 7 8 9 9 8 7 12 13 13 12 9 6 7 7 7 6 5 6 4 2 1 3 4 4 5 5 4 6 5 4 4 5 4 4 5 6 8 8 9 9 9 9 10 11 13 8 6 7 8 7 8 8 11 10 9 10 9 10 10 4 6 5 4 1 2 3 5 6
2 3 3 6 8 8 9 10 10 9 10 13 14 15 16 11 6 6 6 7 7 6 5 6 5 6 5 5 4 5 6 5 5 4 3 4 5 5 6 5 6 6 6 6 7 7 8 9 10 11 11 11 9 6 6 7 7 8 8 11 11 9 11 10 6 7 6 7 7 4 4 5 4 5
3 1 4 7 8 8 9 7 6 7 8 10 14 14 11 5 6 6 6 7 6 5 4 4 5 5 4 4 5 5 4 4 5 4 5 6 6 7 7 8 7 6 6 8 10 9 10 10 10 11 11 12 8 6 6 7 7 8 8 7 9 10 6 8 9 6 7 7 6 6 6 5 5 5
2 5 5 6 9 11 13 12 10 9 8 7 7 6 7 6 7 6 6 4 4 4 5 4 4 5 5 6 6 5 4 3 4 3 4 4 5 6 6 7 8 7 7 7 8 8 8 9 10 10 11 11 9 6 7 8 9 9 8 6 6 8 9 9 6 7 8 8 7 5 5 6 5 4
3 3 5 7 7 7 7 7 7 6 5 4 1 3 5 4 4 6 7 6 5 5 5 4 4 4 5 6 6 6 5 4 4 4 4 5 6 6 6 7 7 8 8 7 7 8 9 8 8 9 10 10 11 9 7 7 9 8 6 5 5 5 6 7 8 9 10 11 10 7 5 5 5 4
2 2 3 4 5 3 1 3 4 5 4 4 3 3 3 4 4 4 5 5 6 6 6 5 5 5 5 6 6 6 6 6 7 6 7 6 6 6 6 7 8 9 10 10 9 9 8 8 8 9 9 10 10 10 9 9 8 6 6 6 5 5 5 7 9 10 11 10 10 10 10 7 5 4
1 2 4 5 6 3 3 3 3 3 4 3 4 4 4 4 4 4 4 6 5 6 7 7 6 6 6 6 6 7 8 7 6 7 7 7 7 7 7 8 8 8 8 9 9 10 9 9 8 9 9 9 8 9 8 8 8 7 6 6 6 7 6 7 7 9 9 9 10 10 9 8 7 6
3 3 4 4 2 3 3 3 2 3 4 4 4 4 4 4 5 3 5 6 5 6 6 7 8 8 7 7 8 8 8 8 8 7 6 7 8 8 9 9 9 9 9 9 9 9 10 11 10 10 8 7 8 5 7 5 6 7 7 7 7 7 7 6 7 8 9 9 8 9 9 7 6 6
2 2 4 2 3 3 3 2 3 3 3 3 3 3 4 4 2 4 3 3 3 3 3 4 5 6 6 6 7 7 8 8 7 7 7 7 8 8 9 9 10 10 10 10 10 10 10 10 10 11 11 10 10 10 6 5 9 7 8 9 8 8 8 9 8 7 8 8 7 8 9 9 9 7
3 5 3 2 2 2 3 3 3 2 3 3 4 3 4 4 2 3 1 1 2 2 2 3 4 5 6 6 6 6 6 7 7 7 7 7 7 8 9 9 9 10 10 10 9 10 9 10 9 9 10 10 10 10 9 6 9 11 9 9 8 8 10 9 9 8 6 6 8 8 10 11 11 9
3 4 1 2 2 2 2 2 2 3 3 3 3 3 4 4 4 3 3 2 5 3 3 2 3 4 5 6 6 6 6 6 6 6 7 7 8 8 8 9 9 9 10 10 9 10 10 10 9 8 9 10 10 10 12 9 6 6 9 8 9 9 9 10 9 7 7 5 6 7 8 10 10 9
4 4 1 2 2 2 2 2 2 3 3 3 4 3 4 4 3 4 3 4 3 3 3 3 3 3 4 5 5 6 6 7 7 7 7 7 7 8 9 9 10 9 9 10 9 9 8 8 9 9 8 10 11 11 11 12 10 7 8 12 9 9 8 6 7 7 7 8 8 6 6 7 11 15
7 1 2 1 2 2 2 3 3 3 4 3 3 3 3 4 5 4 4 4 4 3 4 5 6 6 5 6 7 7 7 8 8 8 7 7 7 8 8 8 9 10 10 10 9 8 7 8 8 9 11 12 12 11 11 9 7 5 5 8 12 11 8 6 8 8 7 6 7 9 10 9 10 8
2 2 1 2 2 2 2 2 2 3 3 3 3 3 4 4 4 3 4 4 4 6 6 6 7 8 8 8 8 7 7 7 7 8 8 7 8 8 10 10 9 8 9 10 10 10 9 7 10 16 14 11 11 10 8 7 8 7 7 6 9 14 16 10 6 6 8 8 8 8 9 10 10 10
3 1 1 1 2 2 2 2 2 2 3 3 4 3 3 3 3 5 4 6 7 7 6 6 7 6 7 7 7 6 7 7 7 7 7 8 9 9 10 9 9 9 9 10 10 9 10 10 11 11 11 11 9 8 8 8 9 9 8 8 8 9 12 17 20 16 12 10 9 9 7 8 5 8
1 1 2 1 1 2 3 2 2 3 3 3 3 3 3 3 4 5 6 6 6 5 4 4 4 4 5 5 5 6 7 7 7 8 9 9 9 9 9 9 9 9 9 9 9 9 9 9 10 10 11 11 9 7 9 9 10 10 10 10 10 9 9 10 13 16 17 18 17 14 11 8 6 7
1 0 1 2 2 2 2 2 4 2 3 3 3 2 3 3 3 5 5 4 4 4 3 3 3 4 4 5 6 7 8 8 8 9 9 8 9 9 9 9 9 9 9 9 9 9 9 9 9 9 9 9 9 9 10 10 11 10 10 11 11 11 12 9 7 9 12 14 16 18 19 19 18 20
1 2 2 2 2 2 2 3 3 3 3 3 2 2 3 3 4 4 3 2 3 3 4 4 3 4 5 6 7 7 7 7 8 8 8 8 8 8 8 8 8 9 9 8 9 9 9 10 9 9 9 9 8 9 9 9 11 11 12 12 13 11 10 9 11 11 11 10 12 17 19 20 20 20
Wind_Direction
31 33 49 69 86 104 123 78 44 1 351 2 54 19 35 4 330 339 345 350 347 3 3 342 357 26 40 9 331 317 337 342 14 273 295 322 309 293 245 227 219 221 225 231 236 237 235 236 239 240 238 236 239 244 249 252 256 260 261 262 258 252 252 246 242 237 230 230 230 226 222 218 214 218
23 48 41 32 34 33 42 47 55 39 14 12 14 20 32 52 35 3 345 326 350 355 347 358 336 342 342 347 335 336 44 30 18 347 327 318 317 353 310 264 241 227 228 232 238 240 239 240 242 243 243 239 236 240 248 253 256 260 264 265 259 257 257 253 251 245 235 231 232 232 228 218 213 222
27 57 50 37 44 42 52 43 43 35 38 18 14 32 31 28 28 18 351 330 359 357 335 333 318 309 348 338 337 4 11 53 351 323 311 314 323 329 308 266 239 238 241 243 246 245 245 245 245 250 253 249 244 243 247 251 255 260 266 268 267 259 253 257 257 251 243 236 239 235 230 219 214 225
31 34 43 38 32 28 31 40 27 13 12 30 29 18 46 46 36 25 359 341 331 341 350 322 315 330 348 337 17 349 16 92 12 316 308 310 313 327 335 321 272 270 284 289 292 299 304 306 303 287 270 259 254 253 250 249 249 253 257 258 262 270 267 261 258 255 251 243 244 246 236 220 214 220
41 37 36 33 36 28 31 29 26 11 4 11 27 15 13 28 16 21 4 355 324 322 328 325 327 315 6 339 333 322 56 50 7 314 298 346 341 352 335 332 337 100 308 324 313 293 270 257 255 271 291 298 294 278 259 251 248 248 245 246 249 254 260 263 263 259 254 251 243 239 234 234 227 227
54 48 43 32 32 31 30 28 26 9 2 10 23 18 9 15 12 2 6 335 334 330 335 339 324 327 4 325 338 358 21 50 27 332 333 313 333 14 341 332 332 27 8 352 343 314 291 267 260 268 272 266 264 277 291 294 286 272 260 252 248 248 250 254 254 258 261 258 252 249 253 249 244 236
51 51 45 38 29 32 31 26 20 7 3 15 23 12 2 7 9 350 342 341 333 340 320 310 322 331 324 319 354 343 355 36 2 346 336 359 10 12 342 313 313 167 307 327 323 309 294 292 287 274 265 261 259 261 257 252 259 270 278 277 265 252 250 252 253 257 258 260 263 262 256 254 250 248
58 50 47 38 33 31 34 24 16 8 7 18 20 11 359 6 0 345 336 341 333 322 316 306 311 310 312 327 19 23 16 13 6 6 11 8 355 347 334 318 303 271 271 286 287 295 288 277 272 267 262 259 257 255 254 255 254 253 255 259 269 273 264 249 248 252 255 259 263 263 267 267 265 263
60 59 52 40 39 35 35 25 18 9 13 24 17 9 2 1 353 344 341 346 344 332 328 326 332 348 1 355 29 21 21 11 6 7 9 358 343 345 341 344 339 329 301 249 255 266 281 283 276 272 266 260 257 254 252 249 248 248 246 251 257 259 266 271 264 251 249 253 256 261 263 264 264 262
64 67 58 50 42 39 40 29 19 11 12 21 20 12 7 3 354 353 351 349 346 352 349 349 342 358 360 357 16 23 24 14 2 4 354 348 351 339 331 330 320 317 320 330 304 303 295 291 287 265 252 254 255 256 255 251 244 242 244 244 246 251 255 259 264 266 258 251 250 255 261 264 264 262
68 68 68 59 51 48 39 38 29 17 12 11 18 9 8 5 3 360 355 354 358 359 353 344 358 355 355 14 13 13 18 10 14 2 349 341 340 330 334 327 331 324 325 355 356 336 311 290 286 285 284 278 270 265 262 261 254 251 244 243 240 243 248 250 253 256 258 258 254 249 253 259 262 263
66 59 60 62 56 52 44 31 20 16 10 7 8 1 2 2 8 6 358 1 360 358 350 350 356 355 353 8 5 8 13 4 2 358 342 330 330 330 332 334 334 320 341 352 345 336 325 313 293 283 274 274 279 278 273 268 255 249 250 245 244 240 242 246 248 252 257 256 255 256 252 249 253 259
87 78 63 52 45 47 48 35 19 4 353 351 357 354 357 360 3 7 8 5 2 356 350 348 353 349 1 5 357 2 13 3 348 330 330 324 322 328 329 331 320 330 335 344 334 327 329 322 320 309 305 296 299 290 291 300 282 254 245 245 243 243 246 240 239 242 248 256 257 252 252 253 250 252
113 104 82 61 47 33 31 28 13 358 335 325 355 346 1 359 6 9 10 9 8 356 343 349 346 350 357 2 351 359 3 340 336 327 333 327 326 331 329 315 321 319 344 331 319 311 309 320 313 313 306 300 301 290 341 270 277 272 241 239 244 241 240 246 239 238 242 247 253 257 253 248 252 255
88 96 98 86 54 39 24 20 6 356 4 345 297 32 39 12 10 19 20 20 18 2 336 341 348 347 354 350 352 7 345 342 336 328 332 328 337 339 332 325 318 326 336 317 308 302 307 322 313 313 311 302 300 302 217 253 265 258 264 260 254 251 244 243 250 249 246 244 245 250 256 259 252 250
89 90 74 66 65 45 29 23 3 359 353 344 339 214 204 330 12 311 84 35 20 356 343 341 342 341 354 337 3 352 347 342 335 343 339 338 336 325 321 315 314 314 313 307 305 300 309 314 306 318 312 306 312 307 284 264 256 269 273 272 278 282 276 266 255 249 244 244 244 245 248 251 255 253
44 56 86 85 61 43 31 19 4 1 349 337 335 168 226 219 211 280 312 316 19 342 335 341 328 341 342 341 351 345 337 335 334 342 333 332 323 317 310 308 309 311 307 303 303 315 312 329 338 323 308 324 337 324 303 279 266 264 263 289 304 294 284 275 267 257 248 243 244 246 246 248 250 253
58 61 67 72 72 61 40 16 6 355 347 340 327 16 343 315 217 235 215 269 16 346 334 334 320 320 330 319 316 319 324 340 337 335 327 321 317 316 318 317 306 299 312 328 336 331 336 345 329 318 327 342 332 316 319 315 291 277 305 297 287 288 285 279 272 264 256 248 243 243 244 244 247 249
40 32 65 81 80 70 47 25 2 3 347 335 339 17 359 334 350 359 95 20 7 342 318 326 311 302 301 293 305 301 318 330 306 301 304 304 315 331 313 301 313 327 347 352 2 340 333 329 341 340 338 331 318 309 319 304 304 295 260 268 278 288 291 284 280 275 265 253 243 240 241 241 243 245
71 50 47 61 80 76 52 18 11 6 348 340 345 356 354 339 344 343 63 18 359 331 313 297 293 292 289 290 286 288 306 299 293 304 308 319 347 327 327 329 341 326 337 356 17 339 333 354 345 329 322 318 311 309 300 305 297 265 260 270 277 280 288 295 282 274 269 261 253 241 235 234 234 237
136 126 106 92 76 79 60 22 19 5 352 340 347 341 342 346 351 336 359 351 335 329 316 290 276 277 278 274 264 264 261 255 290 316 311 348 343 333 331 330 334 329 329 335 14 354 337 349 336 323 320 319 309 306 322 323 326 315 288 274 268 270 282 289 286 273 262 253 247 246 243 233 226 225
124 120 117 103 91 92 84 24 24 8 352 352 341 336 346 349 338 336 346 334 328 319 311 295 279 272 274 271 268 266 262 258 241 245 337 343 343 332 326 321 323 315 317 330 11 344 332 331 327 319 315 309 307 322 314 334 323 320 317 293 272 267 262 258 263 266 269 268 257 244 238 234 219 211
122 103 87 95 103 111 110 74 31 14 3 348 341 329 345 337 331 339 334 328 325 323 321 323 342 337 319 282 237 250 242 241 225 276 7 351 355 334 328 325 327 325 329 343 6 340 334 330 325 324 321 318 317 308 330 318 325 329 312 301 282 241 245 264 268 261 252 250 255 248 233 223 196 217
132 118 115 104 114 122 131 102 50 351 23 353 330 320 329 330 317 334 327 313 312 309 303 324 347 336 328 330 333 339 47 72 65 37 22 3 346 333 322 327 332 321 319 327 352 335 320 317 310 314 309 313 319 332 328 333 324 311 304 305 315 288 257 271 276 265 261 253 251 247 230 209 196 211
139 140 139 138 156 162 143 157 312 297 304 314 310 300 302 296 297 321 316 308 312 309 295 306 359 333 332 333 345 359 5 22 19 21 8 356 341 318 313 317 319 308 307 313 344 327 315 313 303 307 303 305 315 323 324 314 314 304 320 335 325 316 287 274 263 274 267 247 243 242 227 212 205 213
128 126 132 133 176 192 168 186 199 264 282 280 275 273 279 291 300 313 301 299 292 291 295 348 344 332 323 338 342 350 8 10 4 351 348 341 313 305 314 327 323 318 319 329 338 326 314 306 306 302 297 312 316 320 318 314 314 328 329 319 318 322 321 299 280 269 259 249 239 222 229 219 213 217
76 105 115 137 160 187 223 231 240 246 258 276 259 265 274 282 296 312 298 292 296 281 280 304 275 288 316 330 337 341 2 359 346 324 307 291 291 299 313 315 319 317 324 328 328 316 307 302 312 312 303 302 308 316 312 318 322 326 321 323 324 320 317 306 282 276 293 292 273 237 234 239 229 226
86 93 110 149 183 206 231 246 250 247 243 247 263 268 271 274 286 289 292 286 278 285 299 293 277 271 331 344 351 356 345 329 315 296 291 308 324 320 312 320 323 322 318 318 309 304 312 317 321 322 317 307 307 312 312 307 306 318 315 320 320 309 304 306 301 306 301 278 276 199 187 239 232 223
92 130 164 181 203 224 236 245 258 265 257 251 256 262 265 270 266 273 278 283 286 304 329 338 360 8 5 356 343 340 324 311 305 307 338 342 330 329 330 322 317 315 315 302 302 317 327 327 322 317 312 309 298 292 294 297 306 309 318 316 312 314 308 301 326 321 304 312 299 270 248 236 230 205
38 169 220 242 254 260 255 255 254 253 253 243 247 256 261 247 245 248 262 273 292 316 332 2 5 355 349 335 330 307 305 326 322 343 352 359 345 346 337 336 327 323 322 333 331 331 330 323 316 312 309 305 296 301 304 311 309 303 300 296 298 301 302 334 331 337 335 324 316 301 282 267 240 193
262 247 228 231 235 239 246 244 250 260 271 275 272 246 233 228 232 236 239 275 339 347 12 8 356 342 331 319 302 303 311 318 325 351 343 344 336 331 329 325 321 323 327 318 312 314 313 309 308 308 308 307 306 303 311 312 300 297 295 300 333 325 328 319 331 335 336 323 315 299 301 297 279 222
296 295 268 251 254 256 264 256 242 238 230 228 257 350 350 342 360 333 332 347 352 14 15 354 338 326 323 316 320 318 324 331 333 342 346 345 333 331 328 321 318 320 316 320 317 310 303 299 300 306 308 310 310 307 301 293 290 288 297 313 304 297 311 322 345 347 342 334 317 307 287 277 283 273
321 313 297 295 288 279 299 334 4 8 14 355 350 339 341 355 344 348 351 6 24 0 351 341 339 327 338 332 326 328 342 351 347 356 347 342 336 333 328 321 324 322 323 321 323 314 307 305 311 314 312 311 309 307 304 299 296 302 306 307 313 322 339 349 347 339 337 332 323 315 309 290 283 277
315 307 292 281 271 317 1 7 351 0 3 356 354 330 349 2 351 351 9 36 3 354 349 345 341 346 336 325 339 349 346 344 344 341 342 335 340 330 328 322 316 319 315 316 317 318 319 320 319 312 308 303 304 306 308 312 321 332 334 339 341 342 343 341 333 327 326 317 310 307 302 305 295 288
355 304 286 280 326 11 2 343 348 356 0 3 338 338 356 343 344 3 44 23 15 15 12 358 349 342 349 352 355 352 346 343 339 336 344 343 336 331 326 319 318 319 320 316 316 322 325 322 321 316 312 311 310 299 305 322 342 329 332 337 339 332 329 329 322 320 317 310 308 303 309 307 304 308
295 293 279 322 5 358 331 344 6 360 5 342 339 347 345 325 352 33 62 42 48 21 10 350 339 345 344 350 353 345 334 334 334 340 338 332 328 325 324 320 322 324 327 323 322 325 322 319 321 319 318 319 314 311 298 6 336 318 328 328 329 326 322 319 313 309 304 304 310 318 318 320 323 323
260 255 260 30 354 337 346 352 348 6 342 333 347 355 333 319 10 23 23 192 124 80 46 359 352 349 345 351 340 327 329 327 324 326 320 324 325 322 316 318 319 320 316 314 315 313 312 308 310 308 311 309 308 308 312 335 331 336 319 317 318 319 312 308 307 301 300 321 327 327 325 322 317 315
287 288 357 38 344 337 337 327 12 358 339 346 353 347 332 345 356 341 314 348 49 27 13 360 360 1 345 328 318 321 318 317 320 323 331 327 319 318 318 315 315 312 309 306 307 304 297 296 300 305 304 309 314 315 310 314 301 298 300 303 304 303 301 298 300 311 318 318 304 308 306 303 303 310
252 270 23 32 346 313 335 360 15 339 354 357 348 344 350 344 337 328 344 42 10 353 334 357 8 1 325 315 319 319 329 335 335 329 319 317 316 314 311 308 303 304 304 300 294 292 300 307 314 314 325 325 318 311 308 304 301 301 292 287 284 289 295 305 311 315 310 312 305 300 290 291 298 301
226 241 42 358 348 353 5 21 354 1 356 353 346 357 353 343 346 334 0 3 353 337 2 7 359 349 337 345 345 346 339 332 320 313 309 305 303 299 295 297 300 298 294 294 299 303 302 307 317 329 323 311 300 293 291 287 289 297 307 318 311 309 311 319 315 318 320 328 331 322 313 313 305 310
67 48 16 32 337 8 26 0 357 4 349 355 356 9 7 357 330 350 351 344 11 16 8 4 2 1 350 343 336 331 318 308 308 307 308 311 313 312 310 307 300 301 304 304 307 311 320 330 318 309 304 299 296 297 300 307 309 312 312 306 316 320 317 330 348 341 312 314 310 303 297 299 304 306
63 40 8 15 6 2 18 4 4 6 7 8 9 7 346 317 313 343 352 22 28 21 13 5 354 344 334 325 315 307 305 308 311 317 323 323 317 312 309 308 303 305 305 307 311 313 318 320 319 319 310 308 311 319 315 318 313 316 314 311 307 316 332 333 327 319 310 307 306 297 289 293 292 285
82 53 20 356 357 26 13 0 24 27 16 2 358 350 317 335 347 12 22 17 15 3 5 352 331 321 312 303 304 310 317 322 327 321 315 310 305 305 304 302 301 301 303 306 314 316 319 325 328 326 325 323 321 332 318 320 318 313 312 310 310 311 301 299 294 291 288 282 273 265 261 259 281 275
55 115 39 42 24 21 353 25 37 20 13 359 330 327 6 8 10 24 22 9 355 345 328 312 306 293 306 331 341 333 321 317 313 307 302 299 298 295 294 297 301 309 314 316 316 319 322 318 319 322 319 317 323 321 314 316 308 308 305 306 304 304 303 305 293 284 282 278 277 275 270 257 242 244
60 47 41 38 34 356 23 42 35 23 346 327 337 357 10 34 36 16 2 342 319 307 286 276 307 359 1 345 325 314 309 304 302 300 297 295 296 299 302 310 315 313 310 314 314 313 316 315 315 317 310 308 308 304 300 298 300 304 302 301 300 302 305 313 317 314 307 299 279 267 262 265 263 253